Regional Weather Roundup
Issued by NWS

Home | Current Version | Previous Version | Text Only | Print | Product List | Glossary On
Versions: 1 2 3 4 5 6 7 8 9 10 11 12 13 14 15 16 17 18 19 20 21 22 23 24 25 26 27 28 29 30 31 32 33 34 35 36 37 38 39 40 41 42 43 44 45 46 47 48 49 50
568
ASUS43 KIND 050409
RWRIN

WEATHER ROUNDUP FOR INDIANA
NATIONAL WEATHER SERVICE INDIANAPOLIS IN
1100 PM EST SUN DEC 04 2016

NOTE: "FAIR" INDICATES FEW OR NO CLOUDS BELOW 12,000 FEET WITH NO
SIGNIFICANT WEATHER AND/OR OBSTRUCTIONS TO VISIBILITY.

* - STATION DOES NOT REPORT WEATHER SUCH AS PRECIPITATION OR FOG.

+ - STATION NOT QUALITY CONTROLLED BY THE NATIONAL WEATHER SERVICE.
    USE DATA WITH CAUTION...ESPECIALLY DEWPOINT AND RELATIVE
    HUMIDITY OBSERVATIONS.

INZ001>003-010>013-019-020-050500-
NORTHWEST INDIANA

CITY           SKY/WX    TMP DP  RH WIND       PRES   REMARKS
GARY /AIRPORT/ MOCLDY    33  33 100 W8        29.91R FOG     WCI  27
KNOX *+        CLOUDY    32  27  80 W6        29.89R WCI  26
LA PORTE +     CLOUDY   N/A N/A N/A W5        29.88R
MICHIGAN CITY+ CLOUDY    32  32 100 SW3       29.88R FOG
MONTICELLO +   CLOUDY    32  29  89 W10       29.92R WCI  24
RENSSELAER +   CLOUDY    32  32 100 W8        29.94R FOG     WCI  25
VALPARAISO     CLOUDY    34  31  88 MISG      29.91R

$$

LMZ046-743>745-050500-
SOUTHERN LAKE MICHIGAN

STATION/POSITION TIME  TEMP    WIND        PRES    WAVE
                       AIR SEA DIR/SP/G            HT
                 (UTC) (F)     (DEG/KT/KT) (MB)    (FT)
BURNS HARBOR     0340   37     270/ 15/ 17 1012.5S

$$

INZ004-005-014>016-021>024-050500-
NORTH CENTRAL INDIANA

CITY           SKY/WX    TMP DP  RH WIND       PRES   REMARKS
GOSHEN         CLOUDY    33  30  88 W14       29.85R FOG     WCI  23
LOGANSPORT +   CLOUDY    32  32 100 W14G21    29.92R WCI  22
PERU/GRISSOM   CLOUDY    32  32 100 W15       29.90R WCI  22
ROCHESTER +    CLOUDY    34  34 100 W9        29.89R FOG     WCI  26
SOUTH BEND     CLOUDY    32  32 100 SW5       29.87S WCI  27
WARSAW +       MIX PCPN  32  32 100 W13G18    29.86R WCI  22

$$

INZ006>009-017-018-025>027-050500-
NORTHEAST INDIANA

CITY           SKY/WX    TMP DP  RH WIND       PRES   REMARKS
ANGOLA *+      CLOUDY    34  30  86 SW6       29.82R WCI  29
AUBURN +       CLOUDY    34  32  93 SW6       29.84R FOG     WCI  29
FORT WAYNE     CLOUDY    34  32  92 W15       29.84S FOG     WCI  24
HUNTINGTON +   CLOUDY    33  32  96 W16G22    29.87R WCI  22
KENDALLVILLE + CLOUDY    33  33 100 W9        29.82S FOG     WCI  25

$$

INZ028-029-035-036-043>045-051>053-050500-
WEST CENTRAL INDIANA

CITY           SKY/WX    TMP DP  RH WIND       PRES   REMARKS
CRAWFORDSVL +  CLOUDY    32  32 100 W12       29.96R WCI  23
GREENCASTLE +  CLOUDY    34  34 100 W9G20     29.97R WCI  26
LAFAYETTE      CLOUDY    32  32 100 W12       29.95R WCI  23
TERRE HAUTE    PTCLDY    35  30  82 W8        30.00R WCI  29

$$

INZ030>032-037>040-046>048-054>057-064-065-050500-
CENTRAL INDIANA

CITY           SKY/WX    TMP DP  RH WIND       PRES   REMARKS
CP ATTERBURY + CLOUDY    37  34  87 W15G21    29.96R
FISHERS *+     CLOUDY    34  34 100 W14G20    29.94R WCI  24
FRANKFORT +    CLOUDY    36  34  93 W15       29.96R
GREENWOOD *+   CLOUDY    38  35  88 W12G20    29.95R
INDIANAPOLIS   CLOUDY    36  32  85 W17       29.95R
-EAGLE CREEK   CLOUDY    37  32  82 W15G28    29.94R
KOKOMO +       CLOUDY    33  32  96 W22       29.92R WCI  21
MARION +       CLOUDY    33  32  97 W23G30    29.91R WCI  21
MT COMFORT *+  CLOUDY    36  34  93 W22       29.93R
SHELBYVILLE    CLOUDY    40  34  79 W18G24    29.93R
ZIONSVILLE +   CLOUDY    34  32  92 W13G24    29.94R WCI  25

$$

INZ033-034-041-042-049-050-058-059-050500-
EAST CENTRAL INDIANA

CITY           SKY/WX    TMP DP  RH WIND       PRES   REMARKS
MUNCIE         CLOUDY    39  34  82 W22G30    29.89R

$$

INZ060-061-067>069-081>083-085>088-050500-
SOUTHWEST INDIANA

CITY           SKY/WX    TMP DP  RH WIND       PRES   REMARKS
EVANSVILLE     CLOUDY    40  35  83 W5        30.04R
HUNTINGBURG *+ CLOUDY    39  35  86 W16       30.03R
WASHINGTON +   CLOUDY    38  36  89 NW12      30.02R

$$

INZ062-063-066-070>080-084-089>092-050500-
SOUTH CENTRAL AND SOUTHEAST INDIANA

CITY           SKY/WX    TMP DP  RH WIND       PRES   REMARKS
BLOOMINGTON    CLOUDY    37  33  85 W8        29.97R
MADISON *+     CLOUDY    41  37  87 W10G18    29.97R
NORTH VERNON + CLOUDY   N/A N/A N/A W12G24    29.95R
SEYMOUR +      CLOUDY    41  37  87 W15       29.97R

$$





USA.gov is the U.S. government's official web portal to all federal, state and local government web resources and services.